QPF
0.00 0.00 0.00 0.00 0.00 0.00 0.00 0.00 0.00 0.00 0.00 0.00 0.00 0.00 0.00 0.00 0.01 0.01 0.01 0.02 0.02 0.02 0.02 0.02 0.02 0.02 0.02 0.03 0.04 0.05 0.06 0.07 0.10 0.13 0.16 0.18 0.23 0.32 0.41 0.46 0.43 0.36 0.28 0.24
0.00 0.00 0.00 0.00 0.00 0.00 0.00 0.00 0.00 0.00 0.00 0.00 0.00 0.00 0.00 0.00 0.00 0.01 0.01 0.01 0.01 0.01 0.02 0.02 0.02 0.02 0.02 0.03 0.03 0.02 0.03 0.05 0.07 0.11 0.13 0.16 0.24 0.32 0.41 0.51 0.54 0.51 0.45 0.38
0.00 0.00 0.00 0.00 0.00 0.00 0.00 0.00 0.00 0.00 0.00 0.00 0.00 0.00 0.00 0.00 0.00 0.00 0.01 0.01 0.01 0.01 0.01 0.01 0.01 0.02 0.02 0.04 0.04 0.04 0.03 0.04 0.04 0.06 0.09 0.14 0.18 0.22 0.30 0.37 0.44 0.48 0.49 0.47
0.00 0.00 0.00 0.00 0.00 0.00 0.00 0.00 0.00 0.00 0.00 0.00 0.00 0.00 0.00 0.00 0.00 0.00 0.00 0.00 0.01 0.01 0.01 0.01 0.01 0.01 0.02 0.04 0.05 0.05 0.05 0.05 0.05 0.05 0.08 0.10 0.12 0.15 0.20 0.31 0.38 0.41 0.44 0.44
0.00 0.00 0.00 0.00 0.00 0.00 0.00 0.00 0.00 0.00 0.00 0.00 0.00 0.00 0.00 0.00 0.00 0.00 0.00 0.00 0.01 0.01 0.02 0.02 0.03 0.04 0.06 0.05 0.06 0.07 0.07 0.06 0.05 0.04 0.06 0.07 0.09 0.11 0.17 0.23 0.27 0.31 0.35 0.38
0.00 0.00 0.00 0.00 0.00 0.00 0.00 0.00 0.00 0.00 0.00 0.00 0.00 0.00 0.00 0.00 0.00 0.00 0.00 0.01 0.01 0.01 0.01 0.02 0.06 0.09 0.09 0.06 0.08 0.08 0.07 0.07 0.07 0.05 0.06 0.07 0.07 0.08 0.11 0.12 0.15 0.21 0.26 0.28
0.00 0.00 0.00 0.00 0.00 0.00 0.00 0.00 0.00 0.00 0.00 0.00 0.00 0.00 0.00 0.00 0.00 0.01 0.00 0.01 0.01 0.01 0.01 0.03 0.07 0.06 0.07 0.06 0.06 0.06 0.07 0.06 0.06 0.07 0.07 0.05 0.06 0.06 0.06 0.08 0.11 0.14 0.16 0.17
0.00 0.00 0.00 0.00 0.00 0.00 0.00 0.00 0.00 0.00 0.00 0.00 0.01 0.01 0.01 0.01 0.01 0.00 0.00 0.01 0.01 0.01 0.02 0.03 0.05 0.05 0.05 0.06 0.06 0.05 0.07 0.08 0.06 0.07 0.07 0.04 0.05 0.06 0.05 0.06 0.08 0.09 0.11 0.13
0.00 0.00 0.00 0.00 0.00 0.00 0.00 0.00 0.00 0.00 0.00 0.00 0.02 0.02 0.01 0.01 0.01 0.01 0.00 0.01 0.01 0.02 0.04 0.04 0.05 0.05 0.04 0.05 0.06 0.08 0.09 0.09 0.09 0.10 0.08 0.06 0.06 0.05 0.05 0.06 0.07 0.07 0.08 0.09
0.00 0.00 0.00 0.00 0.00 0.00 0.00 0.00 0.00 0.00 0.00 0.00 0.01 0.01 0.01 0.01 0.01 0.01 0.00 0.01 0.01 0.03 0.04 0.03 0.05 0.06 0.04 0.03 0.05 0.07 0.08 0.10 0.13 0.12 0.10 0.08 0.09 0.08 0.07 0.05 0.06 0.06 0.07 0.07
0.00 0.00 0.00 0.00 0.00 0.00 0.00 0.00 0.00 0.00 0.00 0.00 0.00 0.01 0.01 0.01 0.01 0.01 0.00 0.01 0.01 0.02 0.02 0.02 0.03 0.04 0.03 0.02 0.03 0.03 0.04 0.06 0.08 0.10 0.14 0.13 0.10 0.07 0.06 0.06 0.07 0.08 0.08 0.09
0.00 0.00 0.00 0.00 0.00 0.00 0.00 0.00 0.00 0.00 0.00 0.00 0.00 0.00 0.01 0.01 0.02 0.01 0.01 0.01 0.01 0.02 0.01 0.01 0.01 0.02 0.02 0.02 0.02 0.02 0.04 0.05 0.05 0.05 0.10 0.12 0.08 0.06 0.06 0.07 0.08 0.07 0.08 0.09
0.00 0.00 0.00 0.00 0.00 0.00 0.00 0.00 0.00 0.00 0.00 0.00 0.00 0.01 0.02 0.02 0.02 0.01 0.01 0.01 0.01 0.01 0.01 0.01 0.01 0.01 0.02 0.02 0.01 0.02 0.03 0.04 0.05 0.04 0.05 0.07 0.07 0.07 0.07 0.08 0.09 0.08 0.08 0.07
0.00 0.00 0.00 0.00 0.00 0.00 0.00 0.00 0.00 0.00 0.00 0.00 0.00 0.01 0.02 0.01 0.01 0.01 0.02 0.01 0.01 0.00 0.01 0.01 0.01 0.02 0.01 0.01 0.01 0.03 0.03 0.04 0.04 0.03 0.03 0.05 0.07 0.07 0.06 0.08 0.08 0.09 0.10 0.09
0.00 0.00 0.00 0.00 0.00 0.00 0.00 0.00 0.00 0.00 0.00 0.00 0.00 0.00 0.01 0.01 0.01 0.01 0.01 0.01 0.01 0.01 0.00 0.01 0.01 0.01 0.02 0.01 0.01 0.02 0.03 0.03 0.03 0.02 0.02 0.03 0.04 0.05 0.05 0.05 0.06 0.08 0.07 0.07
0.00 0.00 0.00 0.00 0.00 0.00 0.00 0.00 0.00 0.00 0.00 0.00 0.00 0.00 0.00 0.01 0.01 0.01 0.01 0.01 0.01 0.01 0.01 0.01 0.01 0.01 0.01 0.01 0.00 0.00 0.01 0.01 0.01 0.01 0.01 0.01 0.02 0.03 0.04 0.03 0.05 0.06 0.05 0.05
0.00 0.00 0.00 0.00 0.00 0.00 0.00 0.00 0.00 0.00 0.00 0.00 0.00 0.00 0.00 0.00 0.01 0.01 0.01 0.01 0.01 0.01 0.00 0.00 0.00 0.00 0.00 0.00 0.00 0.00 0.00 0.00 0.00 0.01 0.01 0.01 0.01 0.03 0.03 0.02 0.03 0.03 0.03 0.03
0.00 0.00 0.00 0.00 0.00 0.00 0.00 0.00 0.00 0.00 0.00 0.00 0.00 0.00 0.00 0.00 0.01 0.01 0.01 0.01 0.01 0.01 0.00 0.00 0.00 0.00 0.00 0.00 0.00 0.00 0.00 0.00 0.00 0.00 0.01 0.02 0.03 0.05 0.04 0.02 0.01 0.01 0.01 0.01
0.00 0.00 0.00 0.00 0.00 0.00 0.00 0.00 0.00 0.00 0.00 0.00 0.00 0.00 0.00 0.00 0.01 0.01 0.01 0.01 0.01 0.01 0.00 0.00 0.00 0.00 0.00 0.00 0.00 0.01 0.00 0.00 0.00 0.01 0.01 0.02 0.03 0.03 0.03 0.02 0.01 0.01 0.00 0.01
0.00 0.00 0.00 0.00 0.00 0.00 0.00 0.00 0.00 0.00 0.00 0.00 0.00 0.00 0.00 0.00 0.00 0.00 0.00 0.00 0.01 0.01 0.00 0.00 0.00 0.00 0.00 0.00 0.00 0.00 0.00 0.00 0.00 0.01 0.01 0.02 0.02 0.02 0.01 0.01 0.01 0.01 0.00 0.00
0.00 0.00 0.00 0.00 0.00 0.00 0.00 0.00 0.00 0.00 0.00 0.00 0.00 0.00 0.00 0.00 0.00 0.00 0.00 0.00 0.00 0.00 0.01 0.00 0.00 0.00 0.00 0.00 0.00 0.00 0.00 0.00 0.00 0.01 0.01 0.01 0.01 0.01 0.01 0.01 0.02 0.01 0.00 0.00
0.00 0.00 0.00 0.00 0.00 0.00 0.00 0.00 0.00 0.00 0.00 0.00 0.00 0.00 0.00 0.00 0.00 0.00 0.00 0.00 0.00 0.00 0.00 0.00 0.00 0.00 0.00 0.00 0.00 0.00 0.00 0.00 0.00 0.00 0.00 0.00 0.00 0.00 0.00 0.01 0.02 0.01 0.00 0.00
0.00 0.00 0.00 0.00 0.00 0.00 0.00 0.00 0.00 0.00 0.00 0.00 0.00 0.00 0.00 0.00 0.00 0.00 0.00 0.00 0.00 0.00 0.00 0.00 0.00 0.00 0.00 0.00 0.00 0.00 0.00 0.00 0.00 0.00 0.00 0.00 0.00 0.00 0.01 0.02 0.02 0.01 0.00 0.00
0.00 0.00 0.00 0.00 0.00 0.00 0.00 0.00 0.00 0.00 0.00 0.00 0.00 0.00 0.00 0.00 0.00 0.00 0.00 0.00 0.00 0.00 0.00 0.00 0.00 0.00 0.00 0.00 0.00 0.00 0.00 0.00 0.00 0.00 0.00 0.00 0.00 0.00 0.00 0.00 0.00 0.00 0.00 0.00
0.00 0.00 0.00 0.00 0.00 0.00 0.00 0.00 0.00 0.00 0.00 0.00 0.00 0.00 0.00 0.00 0.00 0.00 0.00 0.00 0.00 0.00 0.00 0.00 0.00 0.00 0.00 0.00 0.00 0.00 0.00 0.00 0.00 0.00 0.00 0.00 0.00 0.00 0.00 0.00 0.00 0.00 0.00 0.00
0.00 0.00 0.00 0.00 0.00 0.00 0.00 0.00 0.00 0.00 0.00 0.00 0.00 0.00 0.00 0.00 0.00 0.00 0.00 0.00 0.00 0.00 0.00 0.00 0.00 0.00 0.00 0.00 0.00 0.00 0.00 0.00 0.00 0.00 0.00 0.00 0.00 0.00 0.00 0.00 0.00 0.00 0.00 0.00
MSLP
1016.18 1017.25 1018.08 1018.66 1019.07 1019.38 1019.71 1020.13 1020.72 1021.45 1022.28 1023.11 1023.84 1024.37 1024.62 1024.56 1024.23 1023.67 1022.98 1022.24 1021.52 1020.88 1020.32 1019.82 1019.36 1018.87 1018.33 1017.70 1016.99 1016.21 1015.40 1014.60 1013.86 1013.20 1012.64 1012.20 1011.87 1011.65 1011.54 1011.52 1011.60 1011.77 1012.05 1012.41
1017.70 1018.67 1019.36 1019.81 1020.08 1020.29 1020.53 1020.91 1021.47 1022.19 1023.01 1023.83 1024.54 1025.03 1025.23 1025.12 1024.73 1024.12 1023.39 1022.61 1021.88 1021.22 1020.66 1020.17 1019.70 1019.21 1018.65 1018.01 1017.27 1016.47 1015.63 1014.79 1014.00 1013.29 1012.67 1012.16 1011.75 1011.46 1011.26 1011.16 1011.18 1011.31 1011.55 1011.90
1019.00 1019.82 1020.35 1020.66 1020.82 1020.94 1021.14 1021.49 1022.05 1022.76 1023.58 1024.38 1025.06 1025.51 1025.67 1025.51 1025.07 1024.44 1023.68 1022.90 1022.16 1021.50 1020.94 1020.44 1019.96 1019.46 1018.89 1018.24 1017.50 1016.69 1015.84 1015.01 1014.21 1013.49 1012.85 1012.30 1011.83 1011.46 1011.19 1011.01 1010.94 1011.00 1011.18 1011.49
1020.03 1020.65 1021.03 1021.20 1021.27 1021.35 1021.54 1021.92 1022.50 1023.24 1024.06 1024.84 1025.49 1025.89 1026.00 1025.80 1025.34 1024.68 1023.92 1023.14 1022.40 1021.74 1021.17 1020.66 1020.16 1019.64 1019.05 1018.39 1017.65 1016.86 1016.04 1015.24 1014.47 1013.77 1013.13 1012.57 1012.07 1011.65 1011.30 1011.04 1010.88 1010.85 1010.95 1011.19
1020.79 1021.21 1021.42 1021.49 1021.51 1021.61 1021.84 1022.28 1022.92 1023.70 1024.54 1025.31 1025.91 1026.27 1026.32 1026.08 1025.58 1024.90 1024.13 1023.35 1022.61 1021.95 1021.36 1020.83 1020.30 1019.75 1019.15 1018.48 1017.75 1016.99 1016.22 1015.47 1014.75 1014.09 1013.49 1012.93 1012.42 1011.96 1011.55 1011.21 1010.97 1010.84 1010.85 1011.00
1021.32 1021.55 1021.63 1021.63 1021.66 1021.81 1022.14 1022.67 1023.39 1024.23 1025.07 1025.82 1026.38 1026.67 1026.66 1026.35 1025.81 1025.11 1024.33 1023.54 1022.80 1022.13 1021.53 1020.96 1020.41 1019.83 1019.21 1018.54 1017.83 1017.10 1016.37 1015.68 1015.03 1014.43 1013.87 1013.33 1012.82 1012.33 1011.88 1011.48 1011.15 1010.94 1010.85 1010.91
1021.71 1021.77 1021.75 1021.74 1021.81 1022.05 1022.50 1023.15 1023.95 1024.83 1025.68 1026.39 1026.88 1027.09 1027.00 1026.62 1026.03 1025.30 1024.51 1023.72 1022.97 1022.29 1021.67 1021.08 1020.50 1019.90 1019.26 1018.59 1017.90 1017.20 1016.53 1015.90 1015.31 1014.76 1014.24 1013.73 1013.23 1012.73 1012.24 1011.79 1011.40 1011.11 1010.94 1010.91
1021.99 1021.94 1021.87 1021.88 1022.04 1022.39 1022.96 1023.71 1024.59 1025.49 1026.31 1026.96 1027.36 1027.47 1027.29 1026.84 1026.20 1025.44 1024.63 1023.84 1023.10 1022.42 1021.79 1021.19 1020.59 1019.98 1019.34 1018.67 1018.00 1017.35 1016.72 1016.14 1015.60 1015.09 1014.60 1014.11 1013.61 1013.10 1012.59 1012.10 1011.67 1011.32 1011.09 1010.99
1022.19 1022.09 1022.04 1022.11 1022.36 1022.83 1023.50 1024.33 1025.23 1026.12 1026.89 1027.44 1027.74 1027.73 1027.46 1026.94 1026.26 1025.48 1024.68 1023.90 1023.18 1022.51 1021.89 1021.29 1020.69 1020.08 1019.45 1018.81 1018.17 1017.55 1016.97 1016.42 1015.92 1015.44 1014.96 1014.48 1013.98 1013.45 1012.92 1012.41 1011.95 1011.56 1011.28 1011.13
1022.33 1022.24 1022.24 1022.39 1022.75 1023.31 1024.05 1024.91 1025.80 1026.62 1027.29 1027.73 1027.91 1027.80 1027.44 1026.87 1026.17 1025.40 1024.62 1023.88 1023.19 1022.56 1021.96 1021.39 1020.81 1020.23 1019.62 1019.01 1018.41 1017.83 1017.28 1016.77 1016.29 1015.82 1015.35 1014.85 1014.34 1013.80 1013.25 1012.72 1012.23 1011.83 1011.52 1011.33
1022.37 1022.35 1022.45 1022.70 1023.14 1023.76 1024.52 1025.35 1026.17 1026.89 1027.43 1027.75 1027.80 1027.60 1027.18 1026.60 1025.91 1025.18 1024.46 1023.78 1023.15 1022.57 1022.02 1021.48 1020.94 1020.39 1019.83 1019.27 1018.72 1018.19 1017.68 1017.19 1016.72 1016.25 1015.77 1015.26 1014.72 1014.16 1013.59 1013.05 1012.55 1012.13 1011.81 1011.59
1022.35 1022.44 1022.63 1022.98 1023.47 1024.11 1024.83 1025.59 1026.29 1026.87 1027.27 1027.45 1027.41 1027.15 1026.71 1026.14 1025.51 1024.86 1024.22 1023.62 1023.06 1022.55 1022.05 1021.56 1021.07 1020.57 1020.07 1019.56 1019.07 1018.59 1018.12 1017.67 1017.21 1016.74 1016.24 1015.71 1015.15 1014.56 1013.98 1013.42 1012.91 1012.48 1012.15 1011.92
1022.29 1022.50 1022.80 1023.21 1023.72 1024.32 1024.96 1025.59 1026.14 1026.56 1026.81 1026.88 1026.76 1026.48 1026.06 1025.56 1025.02 1024.47 1023.94 1023.44 1022.96 1022.51 1022.07 1021.63 1021.18 1020.73 1020.28 1019.84 1019.41 1018.99 1018.58 1018.16 1017.72 1017.25 1016.75 1016.20 1015.61 1015.01 1014.42 1013.85 1013.34 1012.91 1012.57 1012.32
1022.27 1022.59 1022.96 1023.39 1023.88 1024.40 1024.91 1025.38 1025.75 1026.01 1026.13 1026.10 1025.95 1025.68 1025.33 1024.93 1024.51 1024.09 1023.67 1023.27 1022.87 1022.48 1022.08 1021.67 1021.26 1020.85 1020.45 1020.07 1019.70 1019.35 1018.99 1018.62 1018.22 1017.77 1017.27 1016.71 1016.12 1015.52 1014.91 1014.35 1013.84 1013.41 1013.07 1012.81
1022.37 1022.76 1023.16 1023.58 1023.99 1024.38 1024.73 1025.01 1025.21 1025.31 1025.31 1025.23 1025.06 1024.84 1024.59 1024.32 1024.04 1023.75 1023.45 1023.14 1022.81 1022.46 1022.08 1021.68 1021.29 1020.91 1020.55 1020.22 1019.91 1019.62 1019.33 1019.02 1018.66 1018.25 1017.77 1017.23 1016.66 1016.06 1015.47 1014.92 1014.42 1014.00 1013.65 1013.38
1022.65 1023.06 1023.45 1023.79 1024.08 1024.32 1024.48 1024.58 1024.61 1024.57 1024.48 1024.35 1024.21 1024.07 1023.93 1023.79 1023.65 1023.49 1023.30 1023.07 1022.78 1022.44 1022.06 1021.67 1021.27 1020.90 1020.56 1020.27 1020.02 1019.80 1019.57 1019.33 1019.03 1018.67 1018.23 1017.74 1017.19 1016.63 1016.07 1015.54 1015.07 1014.67 1014.32 1014.05
1023.11 1023.50 1023.81 1024.04 1024.18 1024.24 1024.23 1024.14 1024.01 1023.86 1023.70 1023.57 1023.47 1023.41 1023.39 1023.38 1023.37 1023.32 1023.21 1023.03 1022.77 1022.43 1022.04 1021.62 1021.21 1020.83 1020.51 1020.25 1020.05 1019.88 1019.72 1019.54 1019.31 1019.02 1018.64 1018.21 1017.71 1017.20 1016.69 1016.21 1015.77 1015.39 1015.06 1014.78
1023.70 1024.00 1024.20 1024.29 1024.28 1024.16 1023.97 1023.73 1023.47 1023.23 1023.04 1022.91 1022.87 1022.89 1022.97 1023.08 1023.17 1023.21 1023.16 1023.02 1022.76 1022.41 1022.00 1021.55 1021.12 1020.74 1020.42 1020.18 1020.02 1019.90 1019.80 1019.69 1019.53 1019.31 1019.01 1018.64 1018.22 1017.78 1017.33 1016.90 1016.51 1016.15 1015.84 1015.55
1024.27 1024.47 1024.54 1024.48 1024.30 1024.03 1023.70 1023.34 1022.99 1022.70 1022.49 1022.39 1022.39 1022.49 1022.66 1022.85 1023.02 1023.12 1023.12 1022.99 1022.74 1022.38 1021.95 1021.48 1021.04 1020.64 1020.33 1020.11 1019.98 1019.91 1019.86 1019.81 1019.72 1019.57 1019.35 1019.06 1018.72 1018.34 1017.96 1017.59 1017.25 1016.93 1016.63 1016.34
1024.66 1024.74 1024.68 1024.49 1024.18 1023.79 1023.36 1022.93 1022.53 1022.22 1022.03 1021.95 1022.01 1022.17 1022.40 1022.66 1022.88 1023.02 1023.05 1022.94 1022.69 1022.33 1021.90 1021.43 1020.98 1020.59 1020.29 1020.09 1019.98 1019.94 1019.94 1019.94 1019.91 1019.82 1019.67 1019.46 1019.20 1018.90 1018.59 1018.28 1017.98 1017.69 1017.40 1017.11
1024.73 1024.69 1024.52 1024.23 1023.84 1023.38 1022.90 1022.45 1022.06 1021.77 1021.60 1021.58 1021.68 1021.89 1022.16 1022.46 1022.71 1022.88 1022.93 1022.84 1022.61 1022.27 1021.85 1021.41 1020.98 1020.61 1020.33 1020.14 1020.05 1020.03 1020.06 1020.10 1020.11 1020.09 1020.00 1019.86 1019.67 1019.44 1019.20 1018.94 1018.68 1018.41 1018.13 1017.83
1024.40 1024.26 1024.01 1023.65 1023.22 1022.76 1022.30 1021.87 1021.53 1021.30 1021.19 1021.22 1021.37 1021.62 1021.92 1022.23 1022.51 1022.69 1022.76 1022.70 1022.51 1022.21 1021.83 1021.42 1021.03 1020.69 1020.44 1020.27 1020.19 1020.19 1020.23 1020.30 1020.34 1020.36 1020.33 1020.25 1020.13 1019.96 1019.77 1019.56 1019.33 1019.08 1018.81 1018.50
1023.65 1023.44 1023.14 1022.77 1022.36 1021.94 1021.55 1021.21 1020.95 1020.81 1020.78 1020.87 1021.07 1021.34 1021.67 1021.99 1022.27 1022.47 1022.57 1022.54 1022.39 1022.15 1021.83 1021.48 1021.14 1020.84 1020.61 1020.46 1020.39 1020.39 1020.44 1020.51 1020.58 1020.62 1020.64 1020.61 1020.54 1020.44 1020.30 1020.13 1019.93 1019.70 1019.42 1019.11
1022.59 1022.33 1022.01 1021.67 1021.31 1020.99 1020.70 1020.48 1020.35 1020.31 1020.38 1020.54 1020.78 1021.09 1021.42 1021.75 1022.03 1022.25 1022.37 1022.38 1022.29 1022.10 1021.85 1021.56 1021.28 1021.02 1020.82 1020.68 1020.60 1020.59 1020.63 1020.70 1020.78 1020.85 1020.90 1020.92 1020.90 1020.85 1020.77 1020.64 1020.47 1020.25 1019.98 1019.66
1021.34 1021.05 1020.75 1020.45 1020.19 1019.99 1019.84 1019.77 1019.77 1019.86 1020.02 1020.26 1020.54 1020.87 1021.21 1021.54 1021.82 1022.05 1022.19 1022.24 1022.19 1022.07 1021.88 1021.66 1021.42 1021.20 1021.01 1020.87 1020.79 1020.76 1020.78 1020.84 1020.92 1021.00 1021.08 1021.15 1021.19 1021.19 1021.15 1021.07 1020.93 1020.74 1020.49 1020.18
1020.07 1019.77 1019.49 1019.27 1019.11 1019.04 1019.04 1019.12 1019.27 1019.48 1019.74 1020.04 1020.37 1020.72 1021.06 1021.38 1021.66 1021.89 1022.04 1022.12 1022.12 1022.05 1021.92 1021.74 1021.55 1021.35 1021.16 1021.02 1020.91 1020.86 1020.86 1020.90 1020.97 1021.07 1021.18 1021.28 1021.37 1021.43 1021.45 1021.42 1021.33 1021.17 1020.95 1020.67
Thickness
5763 5747 5732 5738 5743 5742 5735 5723 5713 5709 5710 5697 5684 5678 5679 5683 5683 5681 5679 5679 5680 5682 5686 5690 5693 5695 5698 5700 5703 5706 5710 5715 5720 5725 5730 5734 5737 5742 5745 5745 5746 5745 5745 5744
5739 5729 5738 5743 5741 5735 5726 5713 5706 5702 5703 5690 5675 5671 5674 5674 5672 5670 5668 5668 5669 5673 5677 5680 5682 5684 5686 5688 5691 5694 5697 5702 5707 5712 5718 5724 5729 5734 5739 5741 5741 5741 5740 5739
5727 5729 5740 5735 5726 5722 5717 5710 5704 5696 5690 5682 5673 5664 5661 5664 5664 5664 5662 5660 5661 5663 5664 5667 5670 5672 5674 5676 5678 5681 5684 5689 5694 5700 5707 5713 5718 5723 5727 5731 5733 5735 5736 5735
5725 5730 5730 5723 5717 5715 5706 5713 5707 5696 5677 5661 5664 5647 5649 5649 5650 5653 5652 5652 5652 5653 5654 5656 5658 5660 5663 5665 5668 5670 5673 5677 5683 5689 5694 5700 5705 5710 5716 5720 5724 5728 5731 5731
5720 5724 5720 5714 5714 5714 5708 5707 5700 5690 5672 5655 5649 5641 5637 5640 5638 5641 5643 5644 5644 5646 5646 5647 5649 5650 5653 5656 5659 5661 5664 5668 5673 5678 5683 5688 5694 5700 5705 5710 5714 5719 5722 5724
5720 5726 5722 5717 5717 5713 5707 5698 5686 5671 5659 5642 5638 5632 5626 5629 5630 5632 5635 5637 5637 5638 5639 5640 5642 5643 5646 5649 5651 5653 5655 5659 5663 5668 5673 5677 5682 5688 5693 5698 5703 5709 5712 5715
5708 5712 5716 5718 5708 5704 5694 5679 5661 5656 5637 5633 5637 5628 5624 5632 5632 5629 5628 5629 5631 5631 5631 5633 5634 5636 5638 5641 5643 5645 5647 5651 5655 5659 5663 5668 5673 5678 5683 5688 5694 5699 5702 5705
5697 5690 5706 5710 5703 5695 5685 5675 5655 5646 5634 5627 5631 5624 5625 5634 5632 5629 5627 5625 5625 5626 5626 5628 5629 5630 5632 5634 5636 5639 5641 5644 5648 5652 5655 5659 5664 5669 5674 5680 5686 5690 5694 5698
5693 5691 5709 5710 5706 5700 5686 5667 5663 5642 5634 5624 5622 5624 5628 5632 5627 5626 5624 5622 5621 5621 5623 5624 5626 5626 5627 5629 5631 5633 5635 5637 5641 5644 5648 5652 5656 5661 5666 5672 5677 5682 5687 5691
5705 5693 5700 5704 5703 5694 5683 5669 5652 5640 5628 5620 5620 5618 5613 5621 5620 5620 5618 5617 5618 5619 5620 5621 5622 5623 5625 5626 5627 5630 5631 5633 5636 5639 5642 5646 5650 5654 5660 5665 5670 5675 5679 5683
5709 5692 5691 5693 5686 5679 5677 5666 5645 5631 5627 5616 5610 5613 5625 5622 5620 5615 5615 5616 5616 5616 5617 5619 5620 5621 5623 5624 5625 5626 5627 5629 5632 5635 5638 5642 5645 5649 5654 5659 5663 5668 5672 5675
5704 5687 5678 5686 5691 5690 5680 5667 5651 5637 5625 5615 5607 5610 5631 5625 5620 5617 5615 5616 5617 5617 5618 5619 5620 5620 5621 5621 5622 5622 5623 5626 5628 5631 5634 5637 5640 5645 5648 5652 5657 5661 5665 5668
5706 5688 5672 5674 5676 5682 5676 5667 5653 5638 5623 5612 5607 5615 5631 5625 5622 5619 5617 5616 5617 5618 5618 5619 5619 5618 5618 5619 5619 5620 5621 5623 5626 5628 5631 5634 5637 5640 5643 5646 5651 5655 5658 5661
5708 5688 5679 5675 5673 5675 5672 5667 5656 5644 5626 5619 5618 5620 5627 5626 5622 5621 5619 5618 5618 5619 5618 5618 5618 5618 5618 5619 5619 5619 5619 5621 5624 5626 5628 5630 5633 5635 5638 5641 5645 5648 5652 5655
5708 5690 5690 5686 5687 5681 5676 5670 5661 5651 5640 5628 5630 5627 5630 5629 5626 5624 5623 5621 5621 5620 5620 5619 5618 5618 5619 5619 5619 5618 5618 5620 5621 5623 5624 5626 5629 5632 5635 5637 5640 5643 5645 5648
5702 5693 5690 5685 5686 5682 5675 5672 5666 5658 5650 5642 5637 5634 5639 5636 5632 5629 5626 5624 5622 5621 5621 5621 5620 5620 5620 5619 5619 5618 5617 5618 5619 5620 5621 5623 5626 5628 5630 5633 5635 5637 5639 5641
5695 5691 5680 5673 5679 5677 5669 5675 5670 5664 5660 5651 5642 5643 5644 5639 5636 5633 5630 5628 5626 5625 5624 5623 5622 5621 5621 5620 5619 5618 5618 5618 5618 5618 5619 5620 5622 5624 5626 5628 5630 5631 5633 5635
5696 5683 5670 5668 5675 5668 5678 5688 5681 5672 5668 5662 5658 5654 5649 5645 5642 5639 5636 5633 5630 5629 5628 5626 5625 5625 5624 5623 5622 5621 5619 5618 5617 5617 5617 5618 5619 5620 5622 5624 5625 5626 5628 5630
5699 5687 5671 5664 5666 5670 5685 5690 5684 5675 5670 5671 5664 5660 5655 5651 5645 5640 5643 5641 5637 5635 5633 5631 5630 5629 5628 5627 5625 5623 5621 5619 5618 5616 5616 5616 5616 5617 5618 5619 5620 5621 5622 5624
5694 5687 5674 5666 5673 5672 5689 5698 5695 5683 5671 5678 5671 5664 5657 5651 5637 5639 5648 5646 5644 5641 5638 5637 5635 5634 5632 5630 5628 5626 5623 5621 5619 5617 5616 5616 5615 5615 5615 5614 5615 5616 5617 5617
5693 5682 5675 5669 5671 5677 5697 5700 5695 5671 5675 5686 5678 5671 5662 5655 5650 5651 5653 5651 5649 5646 5644 5642 5639 5637 5635 5634 5632 5628 5625 5623 5621 5619 5618 5616 5615 5614 5613 5612 5612 5612 5613 5613
5692 5683 5676 5668 5673 5685 5706 5699 5690 5690 5695 5691 5684 5678 5670 5665 5663 5661 5658 5656 5653 5649 5648 5645 5642 5640 5639 5637 5635 5631 5628 5626 5624 5621 5619 5617 5615 5614 5612 5610 5609 5609 5609 5609
5698 5700 5692 5690 5698 5711 5711 5710 5710 5704 5698 5694 5688 5683 5677 5671 5668 5665 5662 5659 5656 5653 5650 5648 5645 5643 5642 5640 5638 5635 5632 5630 5627 5623 5620 5617 5615 5612 5610 5608 5607 5606 5605 5605
5707 5706 5701 5699 5709 5715 5715 5714 5713 5707 5704 5699 5694 5688 5682 5676 5672 5669 5664 5660 5658 5655 5653 5650 5648 5646 5644 5643 5641 5639 5637 5634 5630 5626 5622 5618 5615 5612 5610 5608 5606 5604 5602 5601
5718 5706 5705 5707 5715 5719 5721 5717 5715 5710 5707 5702 5697 5692 5686 5680 5676 5671 5666 5663 5660 5658 5655 5653 5650 5648 5647 5646 5645 5643 5640 5637 5632 5628 5625 5620 5617 5613 5610 5607 5605 5603 5601 5600
5717 5716 5713 5716 5726 5721 5724 5725 5719 5712 5708 5703 5698 5692 5688 5684 5679 5675 5669 5666 5663 5661 5658 5656 5654 5652 5651 5649 5648 5646 5643 5640 5636 5631 5627 5623 5619 5615 5612 5609 5606 5605 5603 5602